This demonstration page uses our WeatherBlox Daily Observations layout. Learn more.

Left ArrowRight Arrow

47.50024, -111.30081

Hourly Observations for August 19, 2022

Temp ( °F °C ) Dew Point ( °F °C ) Humidity (%) Winds ( mph kmh ) Pressure ( in mb ) Visibility ( mi km ) Precip ( " mm )
12:53 am 00:53 Clear 66 18.9 37 2.8 34 34 E 3 6 30.01 1016 10 16 0.00 0.00
1:53 am 01:53 Clear 59 15 36 2.2 42 42 Calm 30.01 1016 10 16 0.00 0.00
2:53 am 02:53 Clear 58 14.4 37 2.8 46 46 N 3 6 30.01 1016 10 16 0.00 0.00
3:53 am 03:53 Clear 54 12.2 37 2.8 53 53 W 3 6 30.01 1016 10 16 0.00 0.00
4:53 am 04:53 Clear 51 10.6 38 3.3 61 61 Calm 30.02 1017 10 16 0.00 0.00
5:53 am 05:53 Clear 52 11.1 38 3.3 59 59 WSW 5 7 30.03 1017 10 16 0.00 0.00
6:53 am 06:53 Sunny 57 13.9 39 3.9 51 51 SW 3 6 30.02 1017 10 16 0.00 0.00
7:53 am 07:53 Sunny 64 17.8 40 4.4 41 41 VRB 3 6 30.02 1017 10 16 0.00 0.00
8:53 am 08:53 Sunny 68 20 40 4.4 36 36 SW 3 6 30.02 1017 9 14 0.00 0.00
9:53 am 09:53 Sunny 74 23.3 42 5.6 32 32 Calm 30.01 1016 10 16 0.00 0.00
10:53 am 10:53 Sunny 80 26.7 43 6.1 27 27 ENE 6 9 29.99 1016 10 16 0.00 0.00
11:53 am 11:53 Sunny 82 27.8 42 5.6 24 24 ENE 10 17 29.98 1015 10 16 0.00 0.00
12:53 pm 12:53 Sunny 86 30 43 6.1 22 22 E 10 17 29.95 1014 10 16 0.00 0.00
1:53 pm 13:53 Sunny 88 31.1 42 5.6 20 20 undefined N/A 29.93 1014 10 16 0.00 0.00
2:53 pm 14:53 Sunny 91 32.8 38 3.3 16 16 ENE 10 17 29.90 1013 10 16 0.00 0.00
3:53 pm 15:53 Sunny 92 33.3 38 3.3 15 15 E 10 17 29.89 1012 10 16 0.00 0.00
4:53 pm 16:53 Sunny 92 33.3 38 3.3 15 15 ENE 10 17 29.87 1012 10 16 0.00 0.00
5:53 pm 17:53 Sunny 92 33.3 37 2.8 15 15 ENE 7 11 29.85 1011 10 16 0.00 0.00
6:53 pm 18:53 Sunny 91 32.8 38 3.3 16 16 ENE 16 26 29.84 1011 10 16 0.00 0.00
7:53 pm 19:53 Sunny 85 29.4 37 2.8 18 18 E 9 15 29.84 1010 10 16 0.00 0.00
8:53 pm 20:53 Clear 77 25 36 2.2 23 23 E 8 13 29.85 1011 10 16 0.00 0.00
9:53 pm 21:53 Clear 77 25 39 3.9 25 25 E 12 19 29.85 1011 10 16 0.00 0.00
10:53 pm 22:53 Clear 71 21.7 39 3.9 31 31 ESE 7 11 29.86 1011 10 16 0.00 0.00
11:53 pm 23:53 Clear 69 20.6 39 3.9 33 33 E 3 6 29.87 1011 10 16 0.00 0.00

Powered by AerisWeather